K7RHT Weather Reports


time (UTC)temp
C
wind
direction
speed
KPH
gust
KPH
rain 1hr
cm
rain 24hr
cm
rain mn
cm
humidity
%
barometer
mb
20260507033059 15 41 3.2 12.9 0.00 0.20 0.20 88 1016.0
20260507031557 16 0 3.2 12.9 0.00 0.20 0.20 88 1015.8
20260507030104 15 76 1.6 14.5 0.00 0.20 0.20 87 1015.5
20260507024602 15 103 1.6 11.3 0.00 0.20 0.20 87 1015.7
20260507023043 15 67 1.6 16.1 0.00 0.20 0.20 85 1015.4
20260507021551 15 40 1.6 9.7 0.00 0.20 0.20 85 1014.9
20260507020055 15 30 3.2 11.3 0.00 0.20 0.20 86 1015.3
20260507014552 16 53 3.2 12.9 0.00 0.20 0.20 82 1015.0
20260507013041 16 0 3.2 16.1 0.00 0.20 0.20 84 1014.8
20260507011548 16 29 1.6 8.0 0.00 0.20 0.20 85 1014.8
20260507010046 16 13 3.2 8.0 0.00 0.20 0.20 85 1014.3
20260507004544 17 53 4.8 11.3 0.00 0.20 0.20 81 1014.2
20260507003046 16 30 3.2 9.7 0.00 0.20 0.20 82 1014.0
20260507001545 16 0 1.6 12.9 0.00 0.20 0.20 83 1014.0
20260507000044 16 11 3.2 11.3 0.00 0.20 0.20 84 1014.0
20260506234552 16 13 4.8 12.9 0.00 0.20 0.20 83 1013.8
20260506233050 17 46 3.2 17.7 0.00 0.20 0.20 80 1013.5
20260506231553 16 22 6.4 17.7 0.00 0.20 0.20 81 1013.2
20260506230046 16 55 6.4 17.7 0.00 0.20 0.20 81 1013.5
20260506224549 16 31 6.4 19.3 0.00 0.20 0.20 81 1013.6
20260506223045 17 355 6.4 16.1 0.00 0.20 0.20 81 1013.3
20260506221545 17 30 1.6 16.1 0.00 0.20 0.20 81 1013.4
20260506220053 18 47 6.4 16.1 0.00 0.20 0.20 79 1013.3
20260506214547 18 22 8.0 19.3 0.00 0.20 0.20 78 1013.3
20260506213048 19 9 8.0 17.7 0.00 0.20 0.20 75 1013.3
20260506211542 20 40 8.0 20.9 0.00 0.20 0.20 73 1013.3
20260506210042 21 347 6.4 16.1 0.00 0.20 0.20 72 1013.5
20260506204550 20 15 9.7 20.9 0.00 0.20 0.20 73 1013.4
20260506203052 22 21 4.8 16.1 0.00 0.20 0.20 70 1013.4
20260506201547 21 76 4.8 16.1 0.00 0.20 0.20 73 1013.6
20260506200045 20 17 8.0 16.1 0.00 0.20 0.20 74 1013.6
20260506194543 20 13 6.4 17.7 0.00 0.20 0.20 76 1013.8
20260506193045 20 5 9.7 19.3 0.00 0.20 0.20 75 1013.8
20260506191543 20 360 8.0 19.3 0.00 0.20 0.20 78 1013.8
20260506190046 20 32 9.7 19.3 0.00 0.20 0.20 78 1014.0
20260506184548 21 12 9.7 19.3 0.00 0.20 0.20 75 1014.0
20260506183047 23 11 9.7 20.9 0.00 0.20 0.20 74 1013.8
20260506181543 23 5 4.8 12.9 0.00 0.20 0.20 74 1013.8
20260506180048 24 5 3.2 14.5 0.00 0.20 0.20 75 1013.8
20260506174544 24 31 3.2 11.3 0.00 0.20 0.20 75 1013.8
20260506173117 23 26 3.2 6.4 0.00 0.20 0.20 77 1014.1
20260506171544 21 12 3.2 8.0 0.00 0.20 0.20 83 1013.9
20260506170041 21 15 0.0 14.5 0.00 0.20 0.20 86 1014.0
20260506164553 20 55 0.0 9.7 0.00 0.20 0.20 84 1013.6
20260506163047 20 78 1.6 9.7 0.00 0.20 0.20 84 1013.4
20260506161544 20 76 1.6 11.3 0.00 0.20 0.20 86 1013.3
20260506160045 20 33 6.4 17.7 0.05 0.20 0.20 85 1013.3
20260506154546 20 18 6.4 20.9 0.08 0.20 0.20 87 1013.3
20260506153048 19 55 6.4 17.7 0.08 0.20 0.20 90 1013.2
20260506151548 18 352 8.0 19.3 0.08 0.20 0.20 93 1013.1
20260506150046 20 13 14.5 37.0 0.03 0.15 0.15 91 1013.0
20260506144544 21 0 0.0 3.2 0.03 0.13 0.13 94 1012.8
20260506143045 21 69 0.0 4.8 0.05 0.13 0.13 95 1012.7
20260506141550 21 0 0.0 3.2 0.08 0.13 0.13 94 1012.4
20260506140046 21 0 0.0 1.6 0.08 0.13 0.13 94 1012.3
20260506134545 21 0 0.0 3.2 0.08 0.10 0.10 94 1012.1
20260506133040 21 0 1.6 14.5 0.05 0.08 0.08 94 1011.5
20260506131552 21 148 4.8 11.3 0.03 0.05 0.05 94 1010.7
20260506130100 21 142 8.0 16.1 0.03 0.05 0.05 94 1010.6
20260506124553 21 182 1.6 6.4 0.00 0.03 0.03 94 1010.5
20260506123045 21 162 3.2 11.3 0.00 0.03 0.03 94 1010.3
20260506121545 21 169 6.4 11.3 0.00 0.03 0.03 94 1010.2
20260506120046 21 157 8.0 17.7 0.03 0.03 0.03 93 1010.2
20260506114545 21 148 8.0 12.9 0.03 0.03 0.03 94 1010.2
20260506113052 21 156 4.8 11.3 0.03 0.03 0.03 93 1010.2
20260506111545 21 173 4.8 11.3 0.03 0.03 0.03 93 1010.4
20260506110056 21 0 4.8 12.9 0.00 0.00 0.00 93 1010.6
20260506104551 21 156 1.6 6.4 0.00 0.00 0.00 93 1010.6
20260506103050 21 156 3.2 11.3 0.00 0.00 0.00 93 1010.6
20260506101556 21 161 6.4 11.3 0.00 0.00 0.00 93 1010.3
20260506100104 21 169 4.8 14.5 0.00 0.00 0.00 93 1010.3
20260506094543 22 176 6.4 14.5 0.00 0.00 0.00 93 1010.2
20260506093048 22 138 8.0 17.7 0.00 0.00 0.00 92 1010.2
20260506091545 22 156 8.0 19.3 0.00 0.00 0.00 92 1010.2
20260506090045 22 152 11.3 19.3 0.00 0.00 0.00 92 1010.1
20260506084605 22 180 14.5 27.4 0.00 0.00 0.00 92 1009.9
20260506083043 22 155 12.9 24.1 0.00 0.00 0.00 91 1009.8
20260506081553 22 169 14.5 27.4 0.00 0.00 0.00 90 1009.8
20260506073047 22 169 8.0 17.7 0.00 0.00 0.00 90 1009.9
20260506071541 22 150 12.9 22.5 0.00 0.00 0.00 90 1010.1
20260506061545 23 141 11.3 17.7 0.00 0.00 0.00 88 1010.4
20260506044637 22 157 8.0 11.3 0.00 0.00 0.00 84 1010.4
20260506043047 22 153 3.2 6.4 0.00 0.00 0.00 83 1010.5
20260506041558 23 127 3.2 4.8 0.00 0.00 0.00 83 1010.5
20260506040049 23 99 3.2 6.4 0.00 0.00 0.00 83 1010.3
20260506034620 23 122 3.2 4.8 0.00 0.00 0.00 83 1010.1